{"data":{"norad_id":43111,"intl_designator":"2018-004A","name":"CARTOSAT-2F","alt_names":[],"object_type":"PAYLOAD","status":"ACTIVE","operator":null,"country":"IND","launch_date":"2018-01-12","launch_site_code":"SRILR","launch_vehicle":null,"mission":null,"orbit_class":"UNKNOWN","rcs_meters":null,"size_class":null,"mass_kg":null,"dimensions":null,"purposes":["earth_obs"],"wikipedia_slug":null,"has_3d_model":false,"image_url":null,"decayed_at":null,"tle_current":{"epoch":"2026-09-20T04:26:54.825792Z","epoch_age_seconds":45501,"freshness":"FRESH","line1":"1 43111U 18004A   26263.18535678  .00001582  00000+0  78445-4 0  9992","line2":"2 43111  97.4689 321.8378 0000690 355.8105   4.3124 15.19188473481755","mean_motion":15.19188473,"eccentricity":6.9e-5,"inclination_deg":97.4689,"raan_deg":321.8378,"arg_perigee_deg":355.8105,"mean_anomaly_deg":4.3124,"bstar":7.8445e-5,"rev_number":48175,"period_min":94.787449061957,"perigee_km":507.81677489086,"apogee_km":508.76710208437,"semimajor_km":6886.4289384876,"source":"CELESTRAK","updated_at":"2026-09-20T09:00:33.972037Z"}}}